This is the latest recevied weather packets stored in our database for station/object IZ3VCM. If no packets are shown the sender has not sent any weather packets the latest 10 day(s).
| Time | Temp. | Humidity | Pressure | Rain* | Wind** | Luminosity | Snow |
|---|---|---|---|---|---|---|---|
| 1777833903 | 20° C | 58% | 1015.7 hPa | 0 mm | - | - | - |
| 1777833005 | 20.56° C | 56% | 1015.5 hPa | 0 mm | - | - | - |
| 1777832103 | 21.67° C | 54% | 1015.3 hPa | 0 mm | - | - | - |
| 1777831206 | 21.67° C | 52% | 1015.2 hPa | 0 mm | - | - | - |
| 1777830303 | 22.22° C | 50% | 1015.3 hPa | 0 mm | - | - | - |
| 1777829406 | 23.89° C | 46% | 1015.2 hPa | 0 mm | - | - | - |
| 1777828504 | 26.67° C | 39% | 1015 hPa | 0 mm | - | - | - |
| 1777827606 | 27.22° C | 39% | 1014.9 hPa | 0 mm | - | - | - |
| 1777826704 | 27.78° C | 41% | 1015 hPa | 0 mm | - | - | - |
| 1777825805 | 28.33° C | 34% | 1015.4 hPa | 0 mm | - | - | - |
| 1777824903 | 30° C | 34% | 1015.5 hPa | 0 mm | - | - | - |
| 1777824005 | 30° C | 35% | 1015.6 hPa | 0 mm | - | - | - |
| 1777823103 | 30° C | 37% | 1015.7 hPa | 0 mm | - | - | - |
| 1777822206 | 30.56° C | 38% | 1016 hPa | 0 mm | - | - | - |
| 1777821303 | 30° C | 38% | 1016.1 hPa | 0 mm | - | - | - |
| 1777820405 | 29.44° C | 35% | 1016.1 hPa | 0 mm | - | - | - |
| 1777819504 | 29.44° C | 35% | 1016.3 hPa | 0 mm | - | - | - |
| 1777817703 | 28.89° C | 36% | 1016.6 hPa | 0 mm | - | - | - |
| 1777816805 | 29.44° C | 36% | 1016.7 hPa | 0 mm | - | - | - |
| 1777815903 | 28.33° C | 38% | 1016.8 hPa | 0 mm | - | - | - |
| 1777815006 | 28.89° C | 39% | 1017 hPa | 0 mm | - | - | - |
| 1777814103 | 28.33° C | 40% | 1017.1 hPa | 0 mm | - | - | - |
| 1777813205 | 28.33° C | 36% | 1017.2 hPa | 0 mm | - | - | - |
| 1777812304 | 27.78° C | 36% | 1017.3 hPa | 0 mm | - | - | - |
| 1777811405 | 28.33° C | 38% | 1017.4 hPa | 0 mm | - | - | - |
* Rain latest hour (hover to see other rain measurements)
** Current wind speed in m/s (hover to see current wind gust speed)